Location: Huntsville
(41.2590°N, 111.7678°W)
Time: 08:11:49
(UTC+00:00)

Vanguard 3 - Pass Details

Date: 16 June 2021
Orbit: 508 x 3261 km, 33.4° (Epoch: 29 July)

Event Time Altitude Azimuth Distance (km) Brightness Sun altitude
Rises 19:03:04 0° 264° (W) 3,286 10.2 71.4°
Reaches altitude 10° 19:05:14 10° 255° (WSW) 2,584 9.9 71.5°
Maximum altitude 19:11:00 39° 188° (S) 1,801 10.0 71.8°
Drops below altitude 10° 19:20:39 10° 125° (SE) 4,335 11.2 72.1°
Sets 19:25:26 0° 119° (ESE) 5,816 11.6 72.1°
